[[{"header":{"parameterUnit":"m.s-1","parameterCategory":1,"la1":30.2991,"la2":30.254,"lo1":-89.0895,"lo2":-89.0444,"dy":0.0017,"dx":0.0017,"nx":28,"ny":28,"refTime":"2025-08-31T21:00:00:Z","depth":0,"parameterNumber":2,"parameterNumberName":"U-component_of_WINDS"},"data":[0,0,0,0,0,0,0,0,0,0,0,0,0,0,0,0,0,0,0,0,0,0,0,0,0,0,0,0,0,0,0,0,0,0,0,0,0,0,0,0,0,0,0,0,0,0,0,0,0,0,0,0,0,0,0,0,0,0,-4.9002,-4.9002,0,-4.9055,-4.9056,-4.9056,-4.8934,-4.893,-4.8927,-4.8923,-4.8977,-4.8982,-4.8987,0,0,0,0,0,0,0,0,0,0,0,0,0,-4.8792,-4.8796,-4.9001,-4.9002,-4.9003,-4.9055,-4.9056,-4.9056,-4.8935,-4.893,-4.8926,-4.8921,-4.8975,-4.8981,-4.8987,0,0,0,0,0,0,0,0,0,0,0,0,0,-4.8868,-4.8798,-4.9001,-4.8949,-4.8944,-4.9055,-4.9056,-4.9057,-4.8936,-4.893,-4.8924,-4.8919,-4.8973,-4.898,-4.8988,-4.9152,0,0,-4.9011,-4.9014,0,0,0,0,0,0,0,0,-4.8864,-4.8876,-4.8956,-4.8952,-4.8948,-4.8982,-4.9001,-4.9088,-4.8938,-4.8939,-4.8923,-4.8916,-4.8983,-4.8989,-4.9012,-4.9154,-4.9156,-4.9012,-4.9016,-4.902,-4.9022,0,0,0,0,0,0,0,-4.8859,-4.8873,-4.9023,-4.8957,-4.8952,-4.8921,-4.8926,-4.9017,-4.8993,-4.8939,-4.893,-4.8938,-4.898,-4.9005,-4.9013,-4.9157,-4.9012,-4.9018,-4.9023,-4.9026,-4.9434,-4.944,0,0,0,0,0,0,-4.886,-4.8869,-4.9021,-4.9024,-4.8891,-4.893,-4.8935,-4.8977,-4.8992,-4.8989,-4.8943,-4.8932,-4.8995,-4.9004,-4.9014,-4.9205,-4.902,-4.9027,-4.9031,-4.9428,-4.9435,-4.9442,0,0,0,0,0,0,-4.8856,-4.8875,-4.9019,-4.8944,-4.896,-4.894,-4.8988,-4.8981,-4.9006,-4.8995,-4.899,-4.8974,-4.8991,-4.9003,-4.9118,-4.9205,-4.903,-4.9037,-4.942,-4.943,-4.9439,-4.959,0,0,0,0,0,0,-4.8851,-4.8874,-4.8937,-4.8947,-4.8965,-4.9123,-4.8994,-4.8986,-4.902,-4.9006,-4.9023,-4.902,-4.8987,-4.9107,-4.9126,-4.9213,-4.9043,-4.9412,-4.9425,-4.9436,-4.9577,-4.9604,-4.9626,0,0,0,0,0,-4.8844,-4.8978,-4.8941,-4.896,-4.9043,-4.9128,-4.9138,-4.9099,-4.9028,-4.909,-4.9082,-4.9019,-4.9193,-4.912,-4.914,-4.923,-4.9407,-4.9421,-4.9435,-4.9566,-4.9598,-4.9626,0,0,0,0,0,0,-4.8979,-4.8978,-4.8937,-4.9078,-4.9104,-4.9107,-4.9185,-4.9134,-4.9181,-4.9166,-4.9115,-4.9119,-4.9243,-4.9248,-4.9167,-4.9389,-4.9288,-4.9306,-4.9381,-4.9411,-4.9435,-4.9431,-4.9049,0,0,0,0,0,-4.9025,-4.9095,-4.909,-4.9215,-4.923,-4.9206,-4.9241,-4.9209,-4.9233,-4.9244,-4.9244,-4.927,-4.933,-4.9371,-4.9426,-4.9578,-4.9578,-4.965,-4.9674,-4.9694,-4.9711,-4.9789,-4.982,-4.9489,-4.9489,-4.9488,0,0,-4.9121,-4.9129,-4.9177,-4.9243,-4.9259,-4.9331,-4.9216,-4.9298,-4.9351,-4.9256,-4.9363,-4.9366,-4.9391,-4.9524,-4.9583,-4.9532,-4.9802,-4.9712,-4.9728,-4.9734,-4.9807,-4.9838,-4.9866,-4.9498,-4.9497,-4.9495,0,0,-4.9333,-4.9347,-4.9451,-4.947,-4.9496,-4.9479,-4.9504,-4.9515,-4.9512,-4.962,-4.955,-4.9612,-4.9717,-4.9738,-4.9762,-4.9981,-4.9924,-5.0,-5.0127,-5.0205,-5.0231,-5.0254,-5.033,-5.0358,-5.0017,-5.0017,-5.0018,0,-4.9449,-4.9556,-4.9512,-4.9598,-4.9629,-4.9546,-4.9651,-4.9671,-4.9714,-4.9736,-4.9679,-4.9809,-4.982,-4.9956,-5.001,-5.0033,-5.0059,-4.9997,-5.0231,-5.0253,-5.0274,-5.0346,-5.0375,-5.0026,-5.0025,-5.0024,-5.0023,0,-4.9696,-4.9771,-4.9853,-4.9896,-4.9935,-5.0031,-5.0,-5.0046,-5.001,-4.9998,-5.0108,-5.0119,-5.0174,-5.0204,-5.017,-5.0335,-5.0303,-5.024,-5.0136,-5.0315,-5.0382,-5.041,-5.0039,-5.0036,-5.0033,-5.0031,0,0,-4.9994,-5.0011,-5.0041,-5.0059,-5.0081,-5.0138,-5.023,-5.0284,-5.0323,-5.0355,-5.0429,-5.052,-5.0461,-5.0489,-5.0456,-5.0524,-5.0695,-5.0452,-5.0452,-5.0495,-5.0876,-5.0923,-5.0956,-5.0658,-5.0663,-5.0667,-5.0873,0,-5.0202,-5.0358,-5.0321,-5.0476,-5.0544,-5.0466,-5.0546,-5.0568,-5.0559,-5.0615,-5.0606,-5.067,-5.0589,-5.0604,-5.0669,-5.0661,-5.0771,-5.0646,-5.0725,-5.0729,-5.072,-5.0991,-5.104,-5.1234,-5.0899,-5.0904,-5.0907,0,-5.0465,-5.0507,-5.0669,-5.0679,-5.0706,-5.0778,-5.0823,-5.0878,-5.0901,-5.089,-5.0921,-5.0875,-5.0964,-5.0862,-5.0983,-5.0899,-5.0929,-5.0931,-5.0937,-5.0942,-5.0828,-5.1001,-5.1296,-5.1324,-5.0948,-5.0945,-5.0942,0,-5.0664,-5.0761,-5.0869,-5.0887,-5.0902,-5.0954,-5.0963,-5.098,-5.1014,-5.1054,-5.1076,-5.1126,-5.1153,-5.1193,-5.1161,-5.109,-5.1287,-5.1182,-5.1279,-5.128,-5.1323,-5.1321,-5.1625,-5.1346,-5.1346,-5.1345,-5.1345,0,-5.0899,-5.1,-5.0959,-5.1026,-5.1136,-5.1092,-5.1203,-5.1203,-5.1219,-5.1283,-5.122,-5.1282,-5.1237,-5.1295,-5.127,-5.1374,-5.1387,-5.138,-5.1372,-5.1385,-5.1385,-5.1403,-5.1388,-5.1353,-5.1351,-5.135,-5.1348,0,-5.1139,-5.1115,-5.1228,-5.1233,-5.1237,-5.1318,-5.1321,-5.1383,-5.137,-5.1453,-5.1469,-5.1449,-5.1514,-5.1486,-5.1555,-5.1538,-5.1671,-5.1646,-5.1663,-5.1656,-5.1754,-5.1744,-5.2079,-5.2119,-5.1816,-5.1819,-5.1822,0,-5.129,-5.1366,-5.1378,-5.1417,-5.143,-5.1494,-5.1528,-5.1488,-5.1526,-5.1557,-5.1615,-5.1674,-5.1719,-5.1827,-5.1818,-5.187,-5.1844,-5.1958,-5.1851,-5.1862,-5.1844,-5.1839,-5.1846,-5.1979,-5.1982,-5.1985,-5.1987,0,-5.1559,-5.1543,-5.1596,-5.1644,-5.1687,-5.1724,-5.1754,-5.179,-5.175,-5.1797,-5.1862,-5.1897,-5.1967,-5.2026,-5.2072,-5.208,-5.2027,-5.2021,-5.2046,-5.2059,-5.2065,-5.2061,-5.1719,-5.2013,-5.2011,-5.2009,-5.2007,-5.2006,-5.1758,-5.1821,-5.1839,-5.1899,-5.1918,-5.1948,-5.2006,-5.2,-5.2054,-5.2107,-5.208,-5.2156,-5.2176,-5.2232,-5.2247,-5.2305,-5.226,-5.2297,-5.2306,-5.2315,-5.2327,-5.2058,-5.2314,-5.2313,-5.2312,-5.2311,-5.2311,0,-5.2022,-5.203,-5.2086,-5.213,-5.2177,-5.2124,-5.2155,-5.2198,-5.2266,-5.2289,-5.2334,-5.2409,-5.2466,-5.2462,-5.2514,-5.2562,-5.2539,-5.2577,-5.2572,-5.2574,-5.2365,-5.2337,-5.2594,-5.2594,-5.2594,-5.2594,-5.2594,-5.2594,-5.2165,-5.2268,-5.2255,-5.2367,-5.2374,-5.2448,-5.247,-5.2497,-5.2515,-5.2601,-5.2648,-5.2645,-5.2657,-5.271,-5.2759,-5.2756,-5.2778,-5.2825,-5.2813,-5.2617,-5.2589,-5.2562,-5.2536,-5.283,-5.283,-5.3017,-5.3018,-5.302]},{"header":{"parameterUnit":"m.s-1","parameterCategory":1,"la1":30.2991,"la2":30.254,"lo1":-89.0895,"lo2":-89.0444,"dy":0.0017,"dx":0.0017,"nx":28,"ny":28,"refTime":"2025-08-31T21:00:00:Z","depth":0,"parameterNumber":3,"parameterNumberName":"V-component_of_WINDS"},"data":[0,0,0,0,0,0,0,0,0,0,0,0,0,0,0,0,0,0,0,0,0,0,0,0,0,0,0,0,0,0,0,0,0,0,0,0,0,0,0,0,0,0,0,0,0,0,0,0,0,0,0,0,0,0,0,0,0,0,-0.3442,-0.3444,0,-0.3625,-0.3627,-0.3629,-0.3743,-0.3744,-0.3744,-0.3745,-0.3935,-0.3939,-0.3943,0,0,0,0,0,0,0,0,0,0,0,0,0,-0.3192,-0.3196,-0.3442,-0.3444,-0.3446,-0.3625,-0.3627,-0.363,-0.3743,-0.3744,-0.3744,-0.3745,-0.3933,-0.3938,-0.3944,0,0,0,0,0,0,0,0,0,0,0,0,0,-0.333,-0.3197,-0.3441,-0.3524,-0.3533,-0.3624,-0.3627,-0.363,-0.3743,-0.3744,-0.3745,-0.3745,-0.3931,-0.3938,-0.3945,-0.3968,0,0,-0.3965,-0.3968,0,0,0,0,0,0,0,0,-0.3322,-0.3339,-0.351,-0.3519,-0.3529,-0.3662,-0.3609,-0.3744,-0.3742,-0.3663,-0.3745,-0.3746,-0.3843,-0.3857,-0.389,-0.3977,-0.3985,-0.3966,-0.397,-0.3973,-0.3975,0,0,0,0,0,0,0,-0.3312,-0.3332,-0.3514,-0.3512,-0.3524,-0.3553,-0.3573,-0.3635,-0.3746,-0.367,-0.3679,-0.3699,-0.3849,-0.3883,-0.3895,-0.3988,-0.3966,-0.3972,-0.3976,-0.3978,-0.4103,-0.4102,0,0,0,0,0,0,-0.3289,-0.3323,-0.3509,-0.352,-0.3426,-0.3557,-0.358,-0.3618,-0.3746,-0.3766,-0.3698,-0.3704,-0.3871,-0.3887,-0.3902,-0.3938,-0.3973,-0.3979,-0.3983,-0.4104,-0.4103,-0.4102,0,0,0,0,0,0,-0.3283,-0.3305,-0.3501,-0.3424,-0.3451,-0.356,-0.3603,-0.3622,-0.3656,-0.3767,-0.3787,-0.3712,-0.3872,-0.3893,-0.3951,-0.3946,-0.3982,-0.3988,-0.4105,-0.4103,-0.4102,-0.4008,0,0,0,0,0,0,-0.3276,-0.3302,-0.3312,-0.3423,-0.3455,-0.3545,-0.3602,-0.3625,-0.3667,-0.3676,-0.3786,-0.3805,-0.3875,-0.394,-0.3957,-0.3956,-0.3993,-0.4106,-0.4104,-0.4103,-0.4012,-0.4004,-0.3997,0,0,0,0,0,-0.3266,-0.3278,-0.3311,-0.3333,-0.3469,-0.3545,-0.3563,-0.3643,-0.3666,-0.3677,-0.3748,-0.3801,-0.3943,-0.3945,-0.3965,-0.3966,-0.4106,-0.4104,-0.4103,-0.4016,-0.4006,-0.3997,0,0,0,0,0,0,-0.3164,-0.3295,-0.3333,-0.3381,-0.3451,-0.3564,-0.358,-0.363,-0.3695,-0.3701,-0.3798,-0.3822,-0.387,-0.3924,-0.3923,-0.3995,-0.4031,-0.4033,-0.3958,-0.3949,-0.3942,-0.3927,-0.3999,0,0,0,0,0,-0.3147,-0.3197,-0.3309,-0.3341,-0.3374,-0.347,-0.3507,-0.3562,-0.3639,-0.3669,-0.3744,-0.3817,-0.3879,-0.3917,-0.398,-0.4021,-0.4046,-0.4031,-0.4024,-0.4017,-0.4018,-0.4043,-0.4037,-0.4097,-0.4097,-0.4097,0,0,-0.3113,-0.319,-0.3216,-0.3322,-0.3383,-0.3433,-0.3495,-0.3545,-0.3584,-0.3677,-0.3736,-0.3793,-0.3882,-0.393,-0.3956,-0.3977,-0.4007,-0.4015,-0.4008,-0.4013,-0.4041,-0.4035,-0.403,-0.4096,-0.4096,-0.4096,0,0,-0.3076,-0.3139,-0.3172,-0.3232,-0.3322,-0.3386,-0.3394,-0.35,-0.3541,-0.3601,-0.3672,-0.372,-0.3823,-0.3883,-0.3927,-0.3911,-0.3962,-0.3928,-0.3889,-0.3912,-0.3907,-0.3904,-0.3898,-0.3894,-0.3929,-0.3929,-0.3929,0,-0.3022,-0.3099,-0.3183,-0.323,-0.3274,-0.336,-0.3394,-0.3448,-0.3554,-0.3583,-0.3605,-0.3736,-0.3802,-0.3866,-0.3862,-0.3895,-0.3906,-0.3916,-0.3901,-0.3898,-0.3896,-0.3891,-0.3889,-0.3924,-0.3925,-0.3925,-0.3926,0,-0.3028,-0.3081,-0.3097,-0.3196,-0.3243,-0.3283,-0.3373,-0.341,-0.3461,-0.3523,-0.3583,-0.3664,-0.3744,-0.3764,-0.3815,-0.3835,-0.3845,-0.3883,-0.3921,-0.3884,-0.3881,-0.388,-0.3917,-0.3919,-0.392,-0.3922,0,0,-0.2932,-0.3077,-0.3081,-0.3127,-0.3233,-0.3276,-0.3319,-0.3397,-0.3426,-0.3497,-0.3536,-0.3621,-0.3657,-0.3706,-0.3765,-0.3785,-0.3766,-0.3821,-0.3824,-0.3807,-0.3793,-0.3764,-0.376,-0.3801,-0.3801,-0.3801,-0.3786,0,-0.291,-0.2992,-0.3069,-0.3123,-0.3173,-0.3255,-0.3293,-0.3362,-0.3421,-0.3472,-0.3538,-0.3596,-0.3639,-0.3669,-0.3693,-0.3763,-0.3765,-0.3766,-0.3839,-0.384,-0.3813,-0.3759,-0.3728,-0.371,-0.3785,-0.3785,-0.3785,0,-0.2896,-0.2961,-0.302,-0.312,-0.3144,-0.3177,-0.3254,-0.3301,-0.3382,-0.3423,-0.3477,-0.3539,-0.3589,-0.3622,-0.3693,-0.3691,-0.3726,-0.3765,-0.3766,-0.3776,-0.381,-0.3766,-0.3706,-0.3702,-0.3784,-0.3784,-0.3784,0,-0.2819,-0.2922,-0.2971,-0.3007,-0.3126,-0.3147,-0.3197,-0.3278,-0.3319,-0.3387,-0.3415,-0.3487,-0.3527,-0.3582,-0.3661,-0.3677,-0.3723,-0.3763,-0.3759,-0.3757,-0.3765,-0.3763,-0.3708,-0.3788,-0.3788,-0.3788,-0.3788,0,-0.2786,-0.2819,-0.2937,-0.2967,-0.3006,-0.3094,-0.313,-0.3188,-0.3259,-0.3302,-0.3378,-0.3417,-0.3519,-0.357,-0.3633,-0.3682,-0.3699,-0.3734,-0.375,-0.3727,-0.3722,-0.3751,-0.3754,-0.3787,-0.3787,-0.3787,-0.3787,0,-0.2707,-0.2788,-0.2846,-0.2952,-0.298,-0.3004,-0.3096,-0.3128,-0.319,-0.3244,-0.3261,-0.336,-0.3424,-0.3508,-0.3599,-0.3641,-0.3682,-0.3708,-0.3654,-0.3664,-0.3655,-0.3654,-0.3616,-0.3615,-0.3694,-0.3693,-0.3693,0,-0.268,-0.2707,-0.2816,-0.285,-0.2897,-0.295,-0.2993,-0.308,-0.3121,-0.3214,-0.3235,-0.3304,-0.3364,-0.3462,-0.3543,-0.3612,-0.364,-0.3622,-0.3651,-0.3626,-0.3639,-0.3636,-0.3639,-0.3614,-0.3613,-0.3612,-0.3611,0,-0.2625,-0.2663,-0.272,-0.2791,-0.2839,-0.2899,-0.2963,-0.2986,-0.3087,-0.3129,-0.3195,-0.3241,-0.3333,-0.3401,-0.3481,-0.3534,-0.3589,-0.3601,-0.3604,-0.358,-0.3548,-0.3564,-0.3634,-0.3601,-0.3602,-0.3603,-0.3604,-0.3604,-0.2571,-0.2599,-0.2679,-0.274,-0.2797,-0.2855,-0.289,-0.2956,-0.3012,-0.3092,-0.3141,-0.3204,-0.3284,-0.3397,-0.3447,-0.3499,-0.352,-0.3524,-0.3525,-0.3525,-0.3517,-0.3539,-0.3514,-0.3514,-0.3514,-0.3515,-0.3515,0,-0.2519,-0.2574,-0.263,-0.2716,-0.2764,-0.281,-0.2883,-0.292,-0.2975,-0.3044,-0.3101,-0.3176,-0.3242,-0.3326,-0.3399,-0.3423,-0.345,-0.3439,-0.3438,-0.3449,-0.3494,-0.3484,-0.3416,-0.3416,-0.3416,-0.3416,-0.3416,-0.3416,-0.2497,-0.2546,-0.2593,-0.267,-0.2726,-0.2788,-0.2825,-0.2879,-0.2934,-0.3014,-0.3069,-0.3123,-0.3199,-0.3277,-0.334,-0.3363,-0.3386,-0.3367,-0.3398,-0.3437,-0.3446,-0.3455,-0.3446,-0.3371,-0.3371,-0.3349,-0.3349,-0.3349]}]]